• In Romania
  • List of Countries
  • For 7 days
  • Water Temperature
  • Satellite Maps
  • Weather Map
  • Weather Widgets
  • user-avatar
    Login

    Hourly Weather Nakhchivan

    Today, 21 November, Tuesday

    Time Temperature Precipitation Wind Pressure Humidity
    00:00 +12°C° 0 mm 2 mps 684 mmHg 55%
    01:00 +10°C° 0 mm 2 mps 684 mmHg 56%
    02:00 +10°C° 0 mm 2 mps 684 mmHg 57%
    03:00 +10°C° 0 mm 2 mps 683 mmHg 62%
    04:00 +10°C° 0 mm 2 mps 683 mmHg 63%
    05:00 +10°C° 0 mm 2 mps 683 mmHg 64%
    06:00 +10°C° 0 mm 2 mps 683 mmHg 65%
    07:00 +12°C° 0 mm 2 mps 683 mmHg 62%
    08:00 +13°C° 0 mm 2 mps 682 mmHg 60%
    09:00 +14°C° 0 mm 2 mps 682 mmHg 56%
    10:00 +13°C° 0.1 mm 3 mps 682 mmHg 56%
    11:00 +14°C° 0.1 mm 3 mps 682 mmHg 56%
    12:00 +14°C° 0.1 mm 3 mps 682 mmHg 56%
    13:00 +16°C° 0.1 mm 3 mps 681 mmHg 56%
    14:00 +16°C° 0.1 mm 3 mps 681 mmHg 55%
    15:00 +16°C° 0.1 mm 3 mps 681 mmHg 54%
    16:00 +14°C° 0.1 mm 3 mps 680 mmHg 57%
    17:00 +13°C° 0.1 mm 3 mps 680 mmHg 60%
    18:00 +14°C° 0.1 mm 2 mps 680 mmHg 64%
    19:00 +13°C° 0 mm 2 mps 680 mmHg 65%
    20:00 +13°C° 0 mm 2 mps 679 mmHg 66%
    21:00 +11°C° 0 mm 3 mps 679 mmHg 67%
    22:00 +11°C° 0 mm 3 mps 679 mmHg 68%
    23:00 +11°C° 0 mm 3 mps 678 mmHg 69%

    Tomorrow, 22 November, Wednesday

    Time Temperature Precipitation Wind Pressure Humidity
    00:00 +11°C° 0 mm 3 mps 678 mmHg 71%
    01:00 +10°C° 0 mm 3 mps 678 mmHg 72%
    02:00 +10°C° 0 mm 3 mps 678 mmHg 74%
    03:00 +10°C° 0 mm 3 mps 678 mmHg 75%
    04:00 +10°C° 0 mm 3 mps 678 mmHg 76%
    05:00 +9°C° 0 mm 3 mps 678 mmHg 76%
    06:00 +9°C° 0 mm 3 mps 678 mmHg 77%
    07:00 +10°C° 0.2 mm 3 mps 678 mmHg 74%
    08:00 +11°C° 0.2 mm 3 mps 678 mmHg 71%
    09:00 +11°C° 0.2 mm 3 mps 678 mmHg 68%
    10:00 +12°C° 0.3 mm 3 mps 678 mmHg 65%
    11:00 +12°C° 0.3 mm 4 mps 678 mmHg 62%
    12:00 +13°C° 0.3 mm 4 mps 678 mmHg 59%
    13:00 +13°C° 0.4 mm 4 mps 678 mmHg 57%
    14:00 +12°C° 0.4 mm 4 mps 678 mmHg 54%
    15:00 +12°C° 0.4 mm 4 mps 678 mmHg 52%
    16:00 +11°C° 0.1 mm 3 mps 679 mmHg 57%
    17:00 +10°C° 0.1 mm 3 mps 679 mmHg 62%
    18:00 +9°C° 0.1 mm 2 mps 680 mmHg 67%
    19:00 +8°C° 0.1 mm 2 mps 680 mmHg 68%
    20:00 +8°C° 0.1 mm 2 mps 680 mmHg 69%
    21:00 +7°C° 0.1 mm 2 mps 681 mmHg 70%
    22:00 +7°C° 0.1 mm 2 mps 681 mmHg 69%
    23:00 +6°C° 0.1 mm 2 mps 681 mmHg 67%

    Day after tomorrow, 23 November, Thursday

    Time Temperature Precipitation Wind Pressure Humidity
    00:00 +4°C° 0.1 mm 3 mps 681 mmHg 65%
    01:00 +4°C° 0.2 mm 3 mps 682 mmHg 66%
    02:00 +3°C° 0.2 mm 3 mps 682 mmHg 67%
    03:00 +4°C° 0.2 mm 2 mps 682 mmHg 67%
    04:00 +3°C° 0.2 mm 2 mps 682 mmHg 70%
    05:00 +3°C° 0.2 mm 2 mps 683 mmHg 72%
    06:00 +2°C° 0.2 mm 2 mps 683 mmHg 75%
    07:00 +3°C° 0 mm 2 mps 683 mmHg 71%
    08:00 +3°C° 0 mm 2 mps 684 mmHg 68%
    09:00 +4°C° 0 mm 2 mps 684 mmHg 64%
    10:00 +4°C° 0 mm 2 mps 684 mmHg 60%
    11:00 +5°C° 0 mm 2 mps 684 mmHg 55%
    12:00 +6°C° 0 mm 2 mps 683 mmHg 51%
    13:00 +6°C° 0 mm 2 mps 683 mmHg 49%
    14:00 +7°C° 0 mm 2 mps 683 mmHg 47%
    15:00 +7°C° 0 mm 3 mps 683 mmHg 45%
    16:00 +6°C° 0 mm 2 mps 683 mmHg 48%
    17:00 +6°C° 0 mm 2 mps 684 mmHg 50%
    18:00 +5°C° 0 mm 2 mps 684 mmHg 53%
    19:00 +5°C° 0 mm 2 mps 684 mmHg 54%
    20:00 +5°C° 0 mm 2 mps 685 mmHg 55%
    21:00 +4°C° 0 mm 2 mps 685 mmHg 57%
    22:00 +5°C° 0.1 mm 1 mps 685 mmHg 58%
    23:00 +5°C° 0.1 mm 1 mps 685 mmHg 59%

    24 November, Friday

    Time Temperature Precipitation Wind Pressure Humidity
    00:00 +5°C° 0.1 mm 1 mps 685 mmHg 60%
    01:00 +4°C° 0.1 mm 1 mps 685 mmHg 62%
    02:00 +4°C° 0.1 mm 1 mps 685 mmHg 64%
    03:00 +4°C° 0.1 mm 1 mps 685 mmHg 66%
    04:00 +3°C° 0 mm 1 mps 685 mmHg 67%
    05:00 +3°C° 0 mm 1 mps 685 mmHg 69%
    06:00 +3°C° 0 mm 1 mps 686 mmHg 70%
    07:00 +3°C° 0.1 mm 1 mps 686 mmHg 67%
    08:00 +3°C° 0.1 mm 1 mps 686 mmHg 64%
    09:00 +4°C° 0.1 mm 1 mps 686 mmHg 62%
    10:00 +4°C° 0.2 mm 1 mps 686 mmHg 60%
    11:00 +3°C° 0.2 mm 2 mps 686 mmHg 58%
    12:00 +3°C° 0.2 mm 2 mps 686 mmHg 57%
    13:00 +3°C° 0.1 mm 2 mps 686 mmHg 56%
    14:00 +3°C° 0.1 mm 2 mps 686 mmHg 54%
    15:00 +4°C° 0.1 mm 1 mps 686 mmHg 53%
    16:00 +4°C° 0 mm 1 mps 686 mmHg 54%
    17:00 +3°C° 0 mm 1 mps 686 mmHg 56%
    18:00 +3°C° 0 mm 1 mps 687 mmHg 57%
    19:00 +2°C° 0 mm 1 mps 687 mmHg 57%
    20:00 +2°C° 0 mm 1 mps 688 mmHg 56%
    21:00 +2°C° 0 mm 1 mps 688 mmHg 55%
    22:00 +2°C° 0 mm 1 mps 688 mmHg 55%
    23:00 +2°C° 0 mm 1 mps 688 mmHg 56%

    25 November, Saturday

    Time Temperature Precipitation Wind Pressure Humidity
    00:00 +2°C° 0 mm 1 mps 689 mmHg 56%
    01:00 +1°C° 0.1 mm 1 mps 689 mmHg 61%
    02:00 +1°C° 0.1 mm 1 mps 689 mmHg 66%
    03:00 0°C° 0.1 mm 1 mps 689 mmHg 71%
    04:00 0°C° 0.1 mm 1 mps 690 mmHg 72%
    05:00 0°C° 0.1 mm 1 mps 690 mmHg 73%
    06:00 0°C° 0.1 mm 1 mps 690 mmHg 74%
    07:00 -2°C° 0 mm 2 mps 691 mmHg 70%
    08:00 -2°C° 0 mm 2 mps 691 mmHg 65%
    09:00 -2°C° 0 mm 2 mps 692 mmHg 61%
    10:00 -1°C° 0 mm 3 mps 692 mmHg 56%
    11:00 0°C° 0 mm 3 mps 692 mmHg 51%
    12:00 -1°C° 0 mm 4 mps 692 mmHg 46%
    13:00 0°C° 0 mm 3 mps 693 mmHg 46%
    14:00 0°C° 0 mm 3 mps 693 mmHg 45%
    15:00 +1°C° 0 mm 3 mps 693 mmHg 45%
    16:00 +1°C° 0 mm 2 mps 694 mmHg 48%
    17:00 -1°C° 0 mm 2 mps 694 mmHg 51%
    18:00 0°C° 0 mm 1 mps 695 mmHg 54%
    19:00 0°C° 0 mm 1 mps 695 mmHg 55%
    20:00 -1°C° 0 mm 1 mps 696 mmHg 55%
    21:00 -1°C° 0 mm 1 mps 696 mmHg 56%
    22:00 -1°C° 0 mm 1 mps 696 mmHg 56%
    23:00 -1°C° 0 mm 1 mps 696 mmHg 56%

    26 November, Sunday

    Time Temperature Precipitation Wind Pressure Humidity
    00:00 -2°C° 0 mm 1 mps 696 mmHg 56%
    01:00 -2°C° 0 mm 1 mps 696 mmHg 56%
    02:00 -2°C° 0 mm 1 mps 696 mmHg 55%
    03:00 -2°C° 0 mm 1 mps 696 mmHg 54%
    04:00 -2°C° 0 mm 1 mps 695 mmHg 53%
    05:00 -2°C° 0 mm 1 mps 695 mmHg 51%
    06:00 -2°C° 0 mm 1 mps 695 mmHg 50%
    07:00 -1°C° 0 mm 1 mps 695 mmHg 47%
    08:00 0°C° 0 mm 1 mps 695 mmHg 44%
    09:00 +1°C° 0 mm 1 mps 695 mmHg 41%
    10:00 +2°C° 0 mm 1 mps 694 mmHg 39%
    11:00 +2°C° 0 mm 1 mps 694 mmHg 37%
    12:00 +3°C° 0 mm 1 mps 693 mmHg 34%
    13:00 +4°C° 0 mm 1 mps 693 mmHg 35%
    14:00 +4°C° 0 mm 1 mps 692 mmHg 36%
    15:00 +4°C° 0 mm 1 mps 692 mmHg 37%
    16:00 +3°C° 0 mm 1 mps 692 mmHg 40%
    17:00 +2°C° 0 mm 1 mps 692 mmHg 43%
    18:00 +1°C° 0 mm 1 mps 692 mmHg 46%
    19:00 +1°C° 0 mm 1 mps 693 mmHg 44%
    20:00 0°C° 0 mm 1 mps 693 mmHg 43%
    21:00 0°C° 0 mm 1 mps 693 mmHg 42%
    22:00 0°C° 0 mm 1 mps 693 mmHg 41%
    23:00 0°C° 0 mm 1 mps 692 mmHg 40%
    Show more